Location: La Savane
(18.0962°N, 63.0646°W)
Time: 13:10:10
(UTC+00:00)

Daily predictions for brighter satellites

Satellite Brightness Start Highest point End
(mag) Time Altitude Azimuth Time Altitude Azimuth Time Altitude Azimuth
SAR-Lupe-4 3.8 21:56:24 10° N 21:59:58 75° WNW 22:03:31 10° SSW
CZ-4B R/B 3.3 21:57:32 10° NNW 22:00:18 30° WNW 22:03:01 10° SW
Envisat 4.0 21:56:05 10° S 22:01:02 54° W 22:05:59 10° NNW
USA 281 3.3 21:59:03 10° SE 22:05:24 56° ENE 22:11:47 10° N
SEDSat Delta rocket 4.1 21:59:20 10° SW 22:06:08 76° SSE 22:12:42 10° ENE
COSMO-SKYMED 1 2.6 22:02:46 10° NNE 22:07:07 87° E 22:11:27 10° S
CZ-4 R/B 3.1 22:08:52 10° E 22:10:27 12° ENE 22:12:02 10° NE
Cosmos 1812 Rocket 4.3 22:06:52 10° SSE 22:10:48 32° E 22:14:42 10° NNE
Cosmos 1697 Rocket 3.2 22:05:44 10° SSW 22:11:15 65° WNW 22:16:49 10° N
Hubble Space Telescope 2.3 22:08:01 10° W 22:11:46 34° SSW 22:15:32 10° SE
Okean O Rocket 2.2 22:08:26 10° S 22:12:46 63° WSW 22:17:05 10° NNW
Cosmos 2227 Rocket 3.3 22:08:33 10° NNE 22:12:47 21° ENE 22:16:59 10° ESE
Delta 7925 Rocket 4.0 22:09:39 10° WSW 22:16:53 78° SSE 22:21:58 13° ENE
Cosmos 1340 2.9 22:15:04 10° N 22:18:41 45° E 22:22:18 10° SSE
IUS-26 SRM-1 4.3 22:13:04 10° WNW 22:18:44 28° NNW 22:20:55 11° NE
Elektron 3 4.4 22:18:31 10° N 22:21:34 34° ENE 22:24:16 10° SE
NOAA 11 4.1 22:18:00 10° SSE 22:23:27 78° ENE 22:28:52 10° N
GPS 2-14 Rocket1 3.6 22:20:42 10° W 22:24:42 46° SSW 22:28:42 10° ESE
Cosmos 1315 Rocket 2.7 22:21:28 10° S 22:25:22 88° ESE 22:29:19 10° N
Meteor 2-1 Rocket 4.1 22:21:09 10° S 22:26:41 84° E 22:32:11 10° N
S3M 3.9 22:21:19 10° S 22:27:25 81° E 22:33:32 10° N
SWIFT 3.9 22:24:02 10° W 22:27:51 32° SSW 22:31:39 10° SE
Cosmos 1346 Rocket 3.7 22:25:32 10° NNE 22:28:52 26° E 22:32:13 10° SE
Atlas Centaur 2 4.0 22:24:06 10° WNW 22:31:26 35° N 22:37:51 14° NE
Cosmos 2315 Rocket 4.5 22:26:04 10° SSE 22:31:41 37° E 22:37:17 10° NNE
Cosmos 2058 3.6 22:28:13 10° NNE 22:31:49 30° E 22:35:26 10° SE
Cosmos 1455 2.4 22:31:10 10° S 22:34:53 73° W 22:38:38 10° N
Cosmos 1980 Rocket 2.3 22:29:19 10° SSW 22:34:58 83° WNW 22:40:36 10° NNE
CZ-2C R/B 3.9 22:33:18 10° SE 22:38:25 33° ENE 22:43:28 10° NNE
DMSP B5D1-3 4.5 22:34:31 10° NNE 22:39:38 64° ESE 22:44:43 10° S
Fermi 4.0 22:35:56 10° W 22:39:59 61° NNW 22:42:10 25° ENE
Okean-O 2.7 22:46:04 10° SSE 22:50:21 52° ENE 22:54:39 10° N
Centaur AC-119 3.5 22:45:53 10° WNW 22:50:45 25° N 22:51:38 22° NNE
CZ-2C R/B 2.6 22:47:49 10° SSW 22:51:19 24° SE 22:51:55 24° SE
ASC 2 Rocket 3.2 22:47:40 10° WNW 22:51:47 62° NNE 22:53:50 33° E
Cosmos 2297 Rocket 2.1 22:46:40 10° NNW 22:52:19 72° ENE 22:57:54 10° SSE
In-Cosmos 22 Rocket 4.4 22:48:22 10° NNW 22:53:47 72° W 22:59:23 10° S
CRYOSAT 2 4.2 22:51:03 10° N 22:55:54 78° E 23:00:45 10° S
H-2A R/B 2.9 22:58:26 31° ENE 22:58:26 31° ENE 23:02:27 10° NNE
IUS-14 SRM-1 3.3 22:55:43 10° W 23:03:07 52° NNW 23:03:56 41° NNE
Cosmos 2322 Rocket 3.1 23:03:17 10° SSE 23:07:13 30° SE 23:07:13 30° SE
Cosmos 1408 2.7 23:05:52 10° N 23:09:31 73° W 23:13:11 10° S
EO 1 Delta rocket 3.7 23:10:38 32° NNE 23:12:47 70° E 23:17:48 10° S
MOS 1 Rocket 4.2 23:09:16 10° N 23:14:08 55° WNW 23:19:16 10° SSW
Cosmos 2219 4.2 23:20:42 10° NNW 23:26:09 46° WSW 23:31:35 10° S
Cosmos 1076 Rocket 4.1 23:27:22 10° NNW 23:31:31 54° W 23:35:41 10° S
Cosmos 968 Rocket 4.2 23:27:45 10° NNW 23:32:43 50° WSW 23:37:39 10° S
Cosmos 2082 4.1 23:27:42 10° N 23:31:56 49° N 23:31:56 49° N
Cosmos-2242 4.2 23:31:02 10° SSW 23:35:00 40° W 23:36:53 25° NNW
OAO 3 Rocket 3.8 23:31:05 10° NW 23:34:33 47° NW 23:34:33 47° NW
CZ-2C R/B 2.7 23:38:06 64° S 23:38:06 64° S 23:42:31 10° SSW
CSL-04 Rocket 4.1 23:32:17 10° SSE 23:39:13 53° N 23:43:22 10° NNW
YAOGAN 1 3.8 23:36:56 10° S 23:40:58 40° W 23:45:02 10° NNW
CZ-4 R/B 3.5 23:41:57 10° SSW 23:45:11 24° W 23:48:23 10° NW
SL-16 R/B 2.3 23:39:55 10° SSW 23:45:18 74° W 23:45:18 74° W
